SWA3438 KDEN-KSAN

Flight info

Callsign SWA3438
Flight time 2h 9m
Altitude 24000
Route BAYLR6 TEHRU PLNDL Q86 TTRUE LUCKI1
Aircraft B737/M-SDE2E3GIJ4RWZ/LB1D1

Departure

Time 2026-05-04 23:17
Airport Denver International Airport (KDEN)

Arrival

Time 2026-05-05 01:27
Airport San Diego International Airport (KSAN)
Time Latitude Longitude Altitude Speed Heading
2026-05-04 22:43 39.86251 -104.66643 5376 ft 0 kts
2026-05-04 23:05 39.86235 -104.66642 5372 ft 4 kts
2026-05-04 23:05 39.86207 -104.66642 5374 ft 4 kts
2026-05-04 23:06 39.86188 -104.66642 5375 ft 0 kts
2026-05-04 23:08 39.86195 -104.66645 5372 ft 2 kts 333°
2026-05-04 23:09 39.86194 -104.66670 5372 ft 4 kts 234°
2026-05-04 23:09 39.86166 -104.66717 5376 ft 9 kts 230°
2026-05-04 23:09 39.86110 -104.66780 5374 ft 14 kts 219°
2026-05-04 23:09 39.86061 -104.66908 5376 ft 20 kts 270°
2026-05-04 23:10 39.86063 -104.67108 5378 ft 23 kts 271°
2026-05-04 23:10 39.86065 -104.67310 5378 ft 22 kts 270°
2026-05-04 23:10 39.86065 -104.67506 5377 ft 22 kts 270°
2026-05-04 23:10 39.86067 -104.67714 5378 ft 23 kts 270°
2026-05-04 23:11 39.86068 -104.67917 5378 ft 22 kts 270°
2026-05-04 23:11 39.86068 -104.68104 5378 ft 18 kts 262°
2026-05-04 23:11 39.86030 -104.68250 5375 ft 17 kts 271°
2026-05-04 23:11 39.86002 -104.68389 5370 ft 17 kts 205°
2026-05-04 23:12 39.85889 -104.68395 5370 ft 16 kts 180°
2026-05-04 23:12 39.85779 -104.68394 5370 ft 16 kts 179°
2026-05-04 23:12 39.85681 -104.68396 5372 ft 15 kts 184°
2026-05-04 23:12 39.85576 -104.68400 5374 ft 15 kts 180°
2026-05-04 23:13 39.85474 -104.68401 5377 ft 15 kts 180°
2026-05-04 23:13 39.85356 -104.68403 5377 ft 20 kts 181°
2026-05-04 23:13 39.85218 -104.68429 5377 ft 20 kts 228°
2026-05-04 23:13 39.85205 -104.68602 5373 ft 20 kts 268°
2026-05-04 23:14 39.85200 -104.68796 5364 ft 23 kts 269°
2026-05-04 23:14 39.85197 -104.69015 5354 ft 25 kts 269°
2026-05-04 23:14 39.85198 -104.69252 5344 ft 27 kts 272°
2026-05-04 23:14 39.85202 -104.69449 5336 ft 17 kts 271°
2026-05-04 23:15 39.85203 -104.69593 5339 ft 14 kts 270°
2026-05-04 23:15 39.85257 -104.69658 5337 ft 12 kts 360°
2026-05-04 23:15 39.85276 -104.69657 5337 ft 0 kts
2026-05-04 23:16 39.85291 -104.69657 5335 ft 15 kts
2026-05-04 23:16 39.85608 -104.69653 5336 ft 75 kts
2026-05-04 23:16 39.86315 -104.69647 5334 ft 126 kts
2026-05-04 23:16 39.87336 -104.69635 5351 ft 165 kts 360°
2026-05-04 23:17 39.88516 -104.69599 5759 ft 173 kts
2026-05-04 23:17 39.89728 -104.69585 6284 ft 178 kts 349°
2026-05-04 23:17 39.90830 -104.70259 6714 ft 184 kts 315°
2026-05-04 23:17 39.91491 -104.71799 6826 ft 213 kts 278°
2026-05-04 23:18 39.91257 -104.73788 7009 ft 242 kts 244°
2026-05-04 23:18 39.90036 -104.75472 7283 ft 270 kts 222°
2026-05-04 23:18 39.88618 -104.77060 7769 ft 283 kts 224°
2026-05-04 23:18 39.87122 -104.78745 8605 ft 285 kts 223°
2026-05-04 23:19 39.85664 -104.80444 9480 ft 287 kts 225°
2026-05-04 23:19 39.84185 -104.82244 10188 ft 294 kts 227°
2026-05-04 23:19 39.82888 -104.84329 10841 ft 302 kts 242°
2026-05-04 23:19 39.81964 -104.86877 11180 ft 324 kts 248°
2026-05-04 23:20 39.81012 -104.89655 11459 ft 346 kts 247°
2026-05-04 23:20 39.79993 -104.92572 11874 ft 361 kts 247°
2026-05-04 23:20 39.78949 -104.95591 12551 ft 369 kts 247°
2026-05-04 23:20 39.77888 -104.98646 13394 ft 370 kts 246°
2026-05-04 23:21 39.76804 -105.01692 14161 ft 373 kts 246°
2026-05-04 23:21 39.75704 -105.04775 14795 ft 378 kts 246°
2026-05-04 23:21 39.74640 -105.07749 15553 ft 378 kts 246°
2026-05-04 23:21 39.73560 -105.10790 16556 ft 372 kts 246°
2026-05-04 23:22 39.72510 -105.13742 17052 ft 382 kts 246°
2026-05-04 23:22 39.71382 -105.16923 17487 ft 392 kts 246°
2026-05-04 23:22 39.70246 -105.20147 18174 ft 394 kts 246°
2026-05-04 23:22 39.69101 -105.23392 18785 ft 396 kts 246°
2026-05-04 23:23 39.67948 -105.26648 19369 ft 399 kts 246°
2026-05-04 23:23 39.66782 -105.29925 19981 ft 401 kts 246°
2026-05-04 23:23 39.65608 -105.33217 20586 ft 402 kts 246°
2026-05-04 23:23 39.64426 -105.36525 21151 ft 405 kts 246°
2026-05-04 23:24 39.63236 -105.39848 21699 ft 408 kts 246°
2026-05-04 23:24 39.62036 -105.43196 22242 ft 411 kts 246°
2026-05-04 23:24 39.60825 -105.46571 22792 ft 413 kts 246°
2026-05-04 23:24 39.59613 -105.49944 23492 ft 411 kts 246°
2026-05-04 23:25 39.58420 -105.53264 23742 ft 413 kts 246°
2026-05-04 23:25 39.57191 -105.56678 23768 ft 411 kts 246°
2026-05-04 23:25 39.56004 -105.59970 23785 ft 406 kts 246°
2026-05-04 23:25 39.54878 -105.63320 23804 ft 405 kts 251°
2026-05-04 23:26 39.53904 -105.66758 23795 ft 407 kts 252°
2026-05-04 23:26 39.52958 -105.70222 23801 ft 408 kts 252°
2026-05-04 23:26 39.52026 -105.73658 23800 ft 408 kts 252°
2026-05-04 23:26 39.51083 -105.77121 23802 ft 409 kts 252°
2026-05-04 23:27 39.50122 -105.80621 23831 ft 417 kts 252°
2026-05-04 23:27 39.49149 -105.84143 24172 ft 421 kts 252°
2026-05-04 23:27 39.48161 -105.87696 24776 ft 418 kts 252°
2026-05-04 23:27 39.47182 -105.91207 25445 ft 412 kts 252°
2026-05-04 23:28 39.46206 -105.94701 25751 ft 412 kts 252°
2026-05-04 23:28 39.45234 -105.98177 25804 ft 409 kts 252°
2026-05-04 23:28 39.44271 -106.01616 25861 ft 409 kts 252°
2026-05-04 23:28 39.43298 -106.05089 25894 ft 409 kts 252°
2026-05-04 23:29 39.42324 -106.08563 25904 ft 409 kts 252°
2026-05-04 23:29 39.41355 -106.12015 25948 ft 408 kts 252°
2026-05-04 23:29 39.40396 -106.15423 25976 ft 409 kts 252°
2026-05-04 23:29 39.39423 -106.18879 25984 ft 409 kts 252°
2026-05-04 23:30 39.38446 -106.22342 26012 ft 411 kts 252°
2026-05-04 23:30 39.37456 -106.25854 26090 ft 420 kts 252°
2026-05-04 23:30 39.36447 -106.29430 26324 ft 426 kts 252°
2026-05-04 23:30 39.35428 -106.33037 26759 ft 427 kts 252°
2026-05-04 23:31 39.34410 -106.36631 27365 ft 424 kts 252°
2026-05-04 23:31 39.33403 -106.40179 28063 ft 418 kts 252°
2026-05-04 23:31 39.32408 -106.43682 28744 ft 413 kts 252°
2026-05-04 23:31 39.31421 -106.47158 29319 ft 412 kts 252°
2026-05-04 23:32 39.30432 -106.50636 29814 ft 411 kts 252°
2026-05-04 23:32 39.29454 -106.54071 29983 ft 414 kts 252°
2026-05-04 23:32 39.27454 -106.61087 29922 ft 414 kts 252°
2026-05-04 23:33 39.25474 -106.68001 29960 ft 410 kts 252°
2026-05-04 23:33 39.22880 -106.74554 30001 ft 417 kts 237°
2026-05-04 23:34 39.19274 -106.80472 30013 ft 420 kts 235°
2026-05-04 23:34 39.15617 -106.86362 29994 ft 420 kts 235°
2026-05-04 23:35 39.12012 -106.92201 29971 ft 418 kts 236°
2026-05-04 23:35 39.08358 -106.98144 30087 ft 426 kts 236°
2026-05-04 23:36 39.06555 -107.01080 30345 ft 428 kts 236°
2026-05-04 23:36 39.04697 -107.04099 30917 ft 421 kts 236°
2026-05-04 23:36 39.02894 -107.07020 31732 ft 409 kts 237°
2026-05-04 23:36 39.01143 -107.09849 32563 ft 398 kts 237°
2026-05-04 23:37 38.99442 -107.12598 33275 ft 389 kts 238°
2026-05-04 23:37 38.97767 -107.15299 33802 ft 385 kts 238°
2026-05-04 23:37 38.96175 -107.17877 34142 ft 383 kts 238°
2026-05-04 23:37 38.94541 -107.20528 34528 ft 380 kts 238°
2026-05-04 23:38 38.92901 -107.23184 34903 ft 376 kts 238°
2026-05-04 23:38 38.91274 -107.25818 35121 ft 377 kts 238°
2026-05-04 23:38 38.89643 -107.28458 35322 ft 378 kts 238°
2026-05-04 23:38 38.88024 -107.31072 35548 ft 378 kts 238°
2026-05-04 23:39 38.86384 -107.33718 35805 ft 377 kts 238°
2026-05-04 23:39 38.84751 -107.36345 35788 ft 375 kts 238°
2026-05-04 23:39 38.81500 -107.41570 35825 ft 376 kts 238°
2026-05-04 23:40 38.78222 -107.46836 35808 ft 377 kts 238°
2026-05-04 23:40 38.74972 -107.52041 35816 ft 376 kts 238°
2026-05-04 23:41 38.71694 -107.57288 35821 ft 377 kts 238°
2026-05-04 23:41 38.68420 -107.62517 35840 ft 376 kts 238°
2026-05-04 23:42 38.65147 -107.67734 35857 ft 375 kts 237°
2026-05-04 23:42 38.61899 -107.72903 35883 ft 374 kts 237°
2026-05-04 23:43 38.58645 -107.78075 35912 ft 372 kts 237°
2026-05-04 23:43 38.55412 -107.83202 35931 ft 369 kts 237°
2026-05-04 23:44 38.52180 -107.88326 35935 ft 371 kts 237°
2026-05-04 23:44 38.48960 -107.93422 35936 ft 372 kts 237°
2026-05-04 23:45 38.45701 -107.98570 35928 ft 372 kts 237°
2026-05-04 23:45 38.42987 -108.02849 35905 ft 372 kts 237°
2026-05-04 23:46 38.39196 -108.08817 35882 ft 372 kts 237°
2026-05-04 23:46 38.36485 -108.13078 35857 ft 372 kts 237°
2026-05-04 23:47 38.33216 -108.18210 35822 ft 372 kts 237°
2026-05-04 23:47 38.29956 -108.23319 35815 ft 372 kts 237°
2026-05-04 23:48 38.26684 -108.28440 35795 ft 372 kts 237°
2026-05-04 23:48 38.23431 -108.33522 35801 ft 372 kts 237°
2026-05-04 23:49 38.20161 -108.38621 35796 ft 372 kts 237°
2026-05-04 23:49 38.16888 -108.43718 35762 ft 371 kts 237°
2026-05-04 23:50 38.13656 -108.48756 35792 ft 365 kts 237°
2026-05-04 23:50 38.10446 -108.53729 35787 ft 362 kts 237°
2026-05-04 23:51 38.07287 -108.58622 35796 ft 360 kts 237°
2026-05-04 23:51 38.04116 -108.63530 35792 ft 359 kts 237°
2026-05-04 23:52 38.00949 -108.68426 35796 ft 359 kts 237°
2026-05-04 23:52 37.97778 -108.73323 35793 ft 359 kts 236°
2026-05-04 23:53 37.94617 -108.78193 35784 ft 359 kts 236°
2026-05-04 23:53 37.91444 -108.83072 35770 ft 356 kts 237°
2026-05-04 23:54 37.88294 -108.87914 35807 ft 357 kts 236°
2026-05-04 23:54 37.85172 -108.92707 35805 ft 360 kts 236°
2026-05-04 23:55 37.81968 -108.97614 35799 ft 362 kts 236°
2026-05-04 23:56 37.77154 -109.04973 35802 ft 363 kts 236°
2026-05-04 23:56 37.73931 -109.09891 35800 ft 363 kts 236°
2026-05-04 23:57 37.70704 -109.14807 35829 ft 363 kts 236°
2026-05-04 23:57 37.67508 -109.19668 35849 ft 363 kts 236°
2026-05-04 23:58 37.64286 -109.24562 35882 ft 362 kts 236°
2026-05-04 23:58 37.61086 -109.29415 35902 ft 361 kts 236°
2026-05-04 23:59 37.57876 -109.34277 35929 ft 360 kts 236°
2026-05-04 23:59 37.54670 -109.39126 35948 ft 360 kts 236°
2026-05-05 00:00 37.51465 -109.43968 35936 ft 359 kts 236°
2026-05-05 00:00 37.48311 -109.48724 35926 ft 359 kts 236°
2026-05-05 00:01 37.45103 -109.53554 35906 ft 359 kts 235°
2026-05-05 00:01 37.41921 -109.58337 35883 ft 358 kts 235°
2026-05-05 00:02 37.38720 -109.63145 35854 ft 359 kts 235°
2026-05-05 00:02 37.35511 -109.67957 35814 ft 359 kts 235°
2026-05-05 00:03 37.32290 -109.72778 35795 ft 360 kts 235°
2026-05-05 00:03 37.29083 -109.77572 35783 ft 360 kts 235°
2026-05-05 00:04 37.25851 -109.82397 35774 ft 361 kts 235°
2026-05-05 00:04 37.22612 -109.87223 35768 ft 361 kts 234°
2026-05-05 00:05 37.19379 -109.92034 35775 ft 360 kts 234°
2026-05-05 00:05 37.16165 -109.96811 35766 ft 360 kts 234°
2026-05-05 00:06 37.12931 -110.01609 35769 ft 360 kts 234°
2026-05-05 00:06 37.09708 -110.06384 35477 ft 354 kts 234°
2026-05-05 00:06 37.08126 -110.08721 35249 ft 348 kts 234°
2026-05-05 00:07 37.06567 -110.11026 35006 ft 347 kts 234°
2026-05-05 00:07 37.05019 -110.13316 34776 ft 349 kts 234°
2026-05-05 00:07 37.03445 -110.15645 34545 ft 352 kts 234°
2026-05-05 00:07 37.01857 -110.17993 34305 ft 354 kts 233°
2026-05-05 00:08 37.00258 -110.20352 34074 ft 356 kts 233°
2026-05-05 00:08 36.98653 -110.22718 33848 ft 357 kts 233°
2026-05-05 00:08 36.97041 -110.25094 33592 ft 359 kts 233°
2026-05-05 00:08 36.95416 -110.27485 33331 ft 360 kts 233°
2026-05-05 00:09 36.93787 -110.29880 33074 ft 361 kts 233°
2026-05-05 00:09 36.92157 -110.32275 32811 ft 362 kts 233°
2026-05-05 00:09 36.90539 -110.34651 32553 ft 363 kts 233°
2026-05-05 00:09 36.88899 -110.37058 32307 ft 364 kts 233°
2026-05-05 00:10 36.87253 -110.39472 32049 ft 364 kts 232°
2026-05-05 00:10 36.85605 -110.41886 31805 ft 365 kts 233°
2026-05-05 00:10 36.83956 -110.44300 31563 ft 365 kts 232°
2026-05-05 00:10 36.82302 -110.46722 31333 ft 367 kts 232°
2026-05-05 00:11 36.80663 -110.49118 31074 ft 368 kts 232°
2026-05-05 00:11 36.78997 -110.51553 30849 ft 369 kts 232°
2026-05-05 00:11 36.77328 -110.53990 30598 ft 370 kts 232°
2026-05-05 00:11 36.75650 -110.56438 30371 ft 370 kts 232°
2026-05-05 00:12 36.73973 -110.58883 30135 ft 371 kts 232°
2026-05-05 00:12 36.72283 -110.61345 29914 ft 373 kts 232°
2026-05-05 00:12 36.70590 -110.63810 29826 ft 375 kts 232°
2026-05-05 00:13 36.67201 -110.68738 29782 ft 376 kts 232°
2026-05-05 00:13 36.63789 -110.73691 29766 ft 376 kts 231°
2026-05-05 00:14 36.60379 -110.78635 29763 ft 376 kts 231°
2026-05-05 00:14 36.56996 -110.83533 29767 ft 375 kts 231°
2026-05-05 00:15 36.53591 -110.88455 29768 ft 375 kts 231°
2026-05-05 00:15 36.50180 -110.93379 29765 ft 375 kts 231°
2026-05-05 00:16 36.46787 -110.98270 29762 ft 375 kts 231°
2026-05-05 00:16 36.43375 -111.03180 29773 ft 374 kts 231°
2026-05-05 00:17 36.39962 -111.08086 29771 ft 375 kts 231°
2026-05-05 00:17 36.36570 -111.12954 29775 ft 375 kts 231°
2026-05-05 00:18 36.33150 -111.17855 29778 ft 375 kts 231°
2026-05-05 00:18 36.29729 -111.22750 29777 ft 375 kts 231°
2026-05-05 00:19 36.26309 -111.27636 29789 ft 375 kts 231°
2026-05-05 00:19 36.22886 -111.32520 29780 ft 375 kts 231°
2026-05-05 00:20 36.19487 -111.37363 29781 ft 375 kts 231°
2026-05-05 00:20 36.16055 -111.42246 29772 ft 375 kts 230°
2026-05-05 00:21 36.12630 -111.47110 29775 ft 375 kts 230°
2026-05-05 00:21 36.09199 -111.51977 29781 ft 375 kts 230°
2026-05-05 00:22 36.05791 -111.56806 29789 ft 375 kts 230°
2026-05-05 00:22 36.02350 -111.61673 29787 ft 375 kts 230°
2026-05-05 00:23 35.98931 -111.66502 29806 ft 375 kts 230°
2026-05-05 00:23 35.96070 -111.70539 29842 ft 376 kts 230°
2026-05-05 00:24 35.92744 -111.75225 29881 ft 377 kts 230°
2026-05-05 00:24 35.89286 -111.80093 29913 ft 377 kts 230°
2026-05-05 00:25 35.85824 -111.84956 29960 ft 377 kts 230°
2026-05-05 00:25 35.82716 -111.90096 29988 ft 377 kts 239°
2026-05-05 00:26 35.80193 -111.95771 30021 ft 378 kts 240°
2026-05-05 00:26 35.77661 -112.01443 30034 ft 378 kts 240°
2026-05-05 00:27 35.75113 -112.07103 30024 ft 377 kts 240°
2026-05-05 00:27 35.72565 -112.12714 30012 ft 375 kts 239°
2026-05-05 00:28 35.69956 -112.18260 29985 ft 374 kts 239°
2026-05-05 00:28 35.67354 -112.23766 29952 ft 373 kts 239°
2026-05-05 00:29 35.64758 -112.29273 29927 ft 372 kts 239°
2026-05-05 00:29 35.62168 -112.34766 29894 ft 372 kts 239°
2026-05-05 00:30 35.59575 -112.40264 29873 ft 372 kts 239°
2026-05-05 00:30 35.57001 -112.45777 29874 ft 372 kts 239°
2026-05-05 00:31 35.54423 -112.51301 29866 ft 372 kts 239°
2026-05-05 00:31 35.51855 -112.56794 29854 ft 372 kts 239°
2026-05-05 00:32 35.49268 -112.62315 29857 ft 372 kts 239°
2026-05-05 00:32 35.46690 -112.67806 29852 ft 372 kts 239°
2026-05-05 00:33 35.44548 -112.72362 29859 ft 371 kts 238°
2026-05-05 00:33 35.41539 -112.78753 29850 ft 372 kts 238°
2026-05-05 00:34 35.39370 -112.83354 29848 ft 372 kts 238°
2026-05-05 00:34 35.36791 -112.88814 29848 ft 372 kts 238°
2026-05-05 00:35 35.34199 -112.94295 29849 ft 371 kts 238°
2026-05-05 00:35 35.31608 -112.99763 29842 ft 371 kts 238°
2026-05-05 00:36 35.29026 -113.05205 29848 ft 371 kts 238°
2026-05-05 00:36 35.26437 -113.10657 29843 ft 370 kts 238°
2026-05-05 00:37 35.23847 -113.16097 29834 ft 370 kts 238°
2026-05-05 00:37 35.21262 -113.21529 29839 ft 370 kts 238°
2026-05-05 00:38 35.18673 -113.26970 29842 ft 369 kts 238°
2026-05-05 00:38 35.16098 -113.32377 29839 ft 369 kts 238°
2026-05-05 00:39 35.13499 -113.37823 29831 ft 369 kts 238°
2026-05-05 00:39 35.10925 -113.43209 29825 ft 368 kts 238°
2026-05-05 00:40 35.08350 -113.48589 29828 ft 367 kts 238°
2026-05-05 00:40 35.05788 -113.53933 29827 ft 365 kts 238°
2026-05-05 00:41 35.03231 -113.59261 29827 ft 362 kts 238°
2026-05-05 00:41 35.00684 -113.64557 29833 ft 361 kts 238°
2026-05-05 00:42 34.98143 -113.69835 29827 ft 361 kts 238°
2026-05-05 00:42 34.95600 -113.75109 29835 ft 361 kts 238°
2026-05-05 00:43 34.93055 -113.80376 29827 ft 361 kts 237°
2026-05-05 00:43 34.90508 -113.85643 29812 ft 360 kts 238°
2026-05-05 00:44 34.87959 -113.90908 29819 ft 358 kts 237°
2026-05-05 00:44 34.85397 -113.96090 29817 ft 358 kts 236°
2026-05-05 00:45 34.82751 -114.01198 29815 ft 358 kts 236°
2026-05-05 00:45 34.80094 -114.06315 29815 ft 358 kts 236°
2026-05-05 00:46 34.77433 -114.11453 29826 ft 358 kts 236°
2026-05-05 00:46 34.74779 -114.16582 29835 ft 358 kts 236°
2026-05-05 00:47 34.72137 -114.21680 29834 ft 357 kts 236°
2026-05-05 00:47 34.69498 -114.26769 29852 ft 357 kts 236°
2026-05-05 00:48 34.66841 -114.31885 29855 ft 356 kts 236°
2026-05-05 00:48 34.64195 -114.36968 29871 ft 356 kts 236°
2026-05-05 00:49 34.61195 -114.41726 29874 ft 355 kts 229°
2026-05-05 00:49 34.57922 -114.46161 29868 ft 355 kts 228°
2026-05-05 00:50 34.54639 -114.50623 29861 ft 353 kts 229°
2026-05-05 00:50 34.51382 -114.55091 29854 ft 353 kts 229°
2026-05-05 00:51 34.48125 -114.59574 29844 ft 354 kts 229°
2026-05-05 00:51 34.44887 -114.64027 29833 ft 355 kts 229°
2026-05-05 00:52 34.41620 -114.68516 29825 ft 355 kts 229°
2026-05-05 00:52 34.38337 -114.73022 29819 ft 355 kts 229°
2026-05-05 00:53 34.35079 -114.77484 29830 ft 356 kts 229°
2026-05-05 00:53 34.31800 -114.81967 29818 ft 356 kts 229°
2026-05-05 00:54 34.28519 -114.86449 29826 ft 356 kts 229°
2026-05-05 00:54 34.25228 -114.90939 29832 ft 356 kts 228°
2026-05-05 00:55 34.21933 -114.95431 29833 ft 357 kts 228°
2026-05-05 00:55 34.18649 -114.99902 29834 ft 357 kts 228°
2026-05-05 00:56 34.15336 -115.04406 29826 ft 356 kts 228°
2026-05-05 00:56 34.12070 -115.08842 29826 ft 356 kts 228°
2026-05-05 00:57 34.08789 -115.13291 29825 ft 355 kts 228°
2026-05-05 00:57 34.05496 -115.17754 29832 ft 354 kts 228°
2026-05-05 00:58 34.02231 -115.22172 29833 ft 354 kts 228°
2026-05-05 00:58 33.98947 -115.26609 29827 ft 354 kts 228°
2026-05-05 00:59 33.95678 -115.31035 29839 ft 353 kts 228°
2026-05-05 00:59 33.92417 -115.35454 29825 ft 352 kts 228°
2026-05-05 01:00 33.89172 -115.39847 29842 ft 352 kts 227°
2026-05-05 01:00 33.85928 -115.44231 29850 ft 352 kts 227°
2026-05-05 01:01 33.82653 -115.48653 29851 ft 352 kts 227°
2026-05-05 01:01 33.79414 -115.53027 29868 ft 351 kts 227°
2026-05-05 01:02 33.76148 -115.57424 29858 ft 352 kts 227°
2026-05-05 01:02 33.72895 -115.61798 29863 ft 352 kts 227°
2026-05-05 01:03 33.69601 -115.66209 29865 ft 353 kts 227°
2026-05-05 01:03 33.66301 -115.70567 29869 ft 349 kts 227°
2026-05-05 01:03 33.64710 -115.72666 29870 ft 338 kts 227°
2026-05-05 01:04 33.63127 -115.74755 29872 ft 334 kts 227°
2026-05-05 01:04 33.60272 -115.79149 29678 ft 337 kts 233°
2026-05-05 01:04 33.58972 -115.81437 29214 ft 331 kts 233°
2026-05-05 01:05 33.57678 -115.83719 28696 ft 326 kts 233°
2026-05-05 01:05 33.56387 -115.85983 27955 ft 326 kts 233°
2026-05-05 01:05 33.55110 -115.88206 27362 ft 324 kts 234°
2026-05-05 01:05 33.53849 -115.90392 26856 ft 322 kts 234°
2026-05-05 01:06 33.52568 -115.92605 26254 ft 323 kts 234°
2026-05-05 01:06 33.51300 -115.94795 25827 ft 321 kts 234°
2026-05-05 01:06 33.50006 -115.97028 25434 ft 329 kts 234°
2026-05-05 01:06 33.48692 -115.99294 25030 ft 336 kts 235°
2026-05-05 01:07 33.47348 -116.01612 24595 ft 337 kts 235°
2026-05-05 01:07 33.46022 -116.03898 24199 ft 335 kts 235°
2026-05-05 01:07 33.44697 -116.06181 23788 ft 335 kts 236°
2026-05-05 01:07 33.43353 -116.08496 23341 ft 336 kts 236°
2026-05-05 01:08 33.42020 -116.10791 22879 ft 336 kts 236°
2026-05-05 01:08 33.40694 -116.13072 22455 ft 335 kts 236°
2026-05-05 01:08 33.39355 -116.15376 22015 ft 334 kts 236°
2026-05-05 01:08 33.38037 -116.17642 21634 ft 332 kts 236°
2026-05-05 01:09 33.36730 -116.19886 21243 ft 332 kts 236°
2026-05-05 01:09 33.35392 -116.22181 20851 ft 335 kts 235°
2026-05-05 01:09 33.33938 -116.24361 20422 ft 339 kts 226°
2026-05-05 01:09 33.32058 -116.26068 20021 ft 345 kts 213°
2026-05-05 01:10 33.29932 -116.27398 19618 ft 348 kts 210°
2026-05-05 01:10 33.27731 -116.28662 19192 ft 348 kts 208°
2026-05-05 01:10 33.25550 -116.29893 18776 ft 347 kts 208°
2026-05-05 01:10 33.23387 -116.31122 18363 ft 345 kts 208°
2026-05-05 01:11 33.21221 -116.32366 17889 ft 343 kts 208°
2026-05-05 01:11 33.19102 -116.33591 17445 ft 338 kts 208°
2026-05-05 01:11 33.16986 -116.34823 16996 ft 335 kts 209°
2026-05-05 01:11 33.14893 -116.36045 16561 ft 333 kts 209°
2026-05-05 01:12 33.12834 -116.37247 16156 ft 330 kts 209°
2026-05-05 01:12 33.10792 -116.38441 15768 ft 328 kts 208°
2026-05-05 01:12 33.08724 -116.39649 15356 ft 327 kts 209°
2026-05-05 01:12 33.06700 -116.40831 14977 ft 325 kts 209°
2026-05-05 01:13 33.04659 -116.42023 14574 ft 324 kts 209°
2026-05-05 01:13 33.02647 -116.43195 14180 ft 321 kts 209°
2026-05-05 01:13 33.00686 -116.44364 13798 ft 314 kts 212°
2026-05-05 01:13 32.98971 -116.45894 13392 ft 305 kts 221°
2026-05-05 01:14 32.97365 -116.47539 12975 ft 299 kts 222°
2026-05-05 01:14 32.95819 -116.49134 12616 ft 294 kts 223°
2026-05-05 01:14 32.94268 -116.50726 12286 ft 293 kts 222°
2026-05-05 01:14 32.92725 -116.52301 11931 ft 295 kts 222°
2026-05-05 01:15 32.91155 -116.53897 11571 ft 295 kts 222°
2026-05-05 01:15 32.89595 -116.55475 11217 ft 295 kts 222°
2026-05-05 01:15 32.88050 -116.57033 10864 ft 290 kts 222°
2026-05-05 01:15 32.86509 -116.58585 10500 ft 286 kts 222°
2026-05-05 01:16 32.85015 -116.60086 10168 ft 281 kts 222°
2026-05-05 01:16 32.83526 -116.61586 9887 ft 274 kts 222°
2026-05-05 01:16 32.82119 -116.63003 9617 ft 266 kts 222°
2026-05-05 01:16 32.80689 -116.64443 9180 ft 266 kts 223°
2026-05-05 01:17 32.79289 -116.65852 8818 ft 263 kts 223°
2026-05-05 01:17 32.77907 -116.67248 8472 ft 260 kts 225°
2026-05-05 01:17 32.76814 -116.68916 8160 ft 251 kts 242°
2026-05-05 01:17 32.75984 -116.70696 7838 ft 241 kts 243°
2026-05-05 01:18 32.75190 -116.72395 7556 ft 232 kts 243°
2026-05-05 01:18 32.74410 -116.74054 7274 ft 225 kts 243°
2026-05-05 01:18 32.73662 -116.75645 7021 ft 220 kts 243°
2026-05-05 01:18 32.72909 -116.77241 6755 ft 219 kts 243°
2026-05-05 01:19 32.72168 -116.78806 6496 ft 219 kts 244°
2026-05-05 01:19 32.71417 -116.80388 6212 ft 219 kts 243°
2026-05-05 01:19 32.70684 -116.81959 5942 ft 218 kts 248°
2026-05-05 01:19 32.70125 -116.83611 5690 ft 214 kts 252°
2026-05-05 01:20 32.69623 -116.85277 5441 ft 212 kts 252°
2026-05-05 01:20 32.69123 -116.86921 5189 ft 211 kts 252°
2026-05-05 01:20 32.68960 -116.87453 5119 ft 210 kts 251°
2026-05-05 01:20 32.68855 -116.87800 5075 ft 210 kts 252°
2026-05-05 01:21 32.68318 -116.89628 4822 ft 211 kts 252°
2026-05-05 01:21 32.67834 -116.91285 4576 ft 214 kts 252°
2026-05-05 01:21 32.67372 -116.92981 4279 ft 214 kts 261°
2026-05-05 01:21 32.67420 -116.94701 4049 ft 210 kts 282°
2026-05-05 01:22 32.67659 -116.95813 3898 ft 208 kts 285°
2026-05-05 01:22 32.68208 -116.97989 3594 ft 205 kts 286°
2026-05-05 01:22 32.68616 -116.99601 3357 ft 203 kts 285°
2026-05-05 01:22 32.68884 -117.00669 3221 ft 199 kts 285°
2026-05-05 01:23 32.69275 -117.02232 2948 ft 193 kts 285°
2026-05-05 01:23 32.69642 -117.03721 2698 ft 183 kts 285°
2026-05-05 01:23 32.69986 -117.05115 2477 ft 173 kts 284°
2026-05-05 01:23 32.70316 -117.06463 2288 ft 169 kts 285°
2026-05-05 01:24 32.70634 -117.07765 2059 ft 155 kts 285°
2026-05-05 01:24 32.70911 -117.08902 2036 ft 131 kts 285°
2026-05-05 01:24 32.71172 -117.09972 1793 ft 135 kts 285°
2026-05-05 01:24 32.71428 -117.11010 1415 ft 130 kts 286°
2026-05-05 01:25 32.71684 -117.12025 1203 ft 128 kts 286°
2026-05-05 01:25 32.71919 -117.13050 1068 ft 129 kts 286°
2026-05-05 01:25 32.72177 -117.14071 867 ft 126 kts 285°
2026-05-05 01:25 32.72424 -117.15091 683 ft 131 kts 282°
2026-05-05 01:26 32.72676 -117.16132 513 ft 135 kts 282°
2026-05-05 01:26 32.72932 -117.17227 223 ft 138 kts 284°
2026-05-05 01:26 32.73188 -117.18265 35 ft 122 kts 284°
2026-05-05 01:26 32.73391 -117.19113 23 ft 83 kts 287°
2026-05-05 01:27 32.73494 -117.19538 25 ft 37 kts 286°
2026-05-05 01:27 32.73535 -117.19742 25 ft 16 kts 268°
2026-05-05 01:27 32.73485 -117.19841 22 ft 15 kts 184°
2026-05-05 01:27 32.73444 -117.19754 24 ft 10 kts 105°
2026-05-05 01:28 32.73425 -117.19678 23 ft 9 kts 107°
2026-05-05 01:28 32.73407 -117.19606 22 ft 9 kts 105°
2026-05-05 01:28 32.73391 -117.19539 22 ft 6 kts 105°
2026-05-05 01:28 32.73380 -117.19491 23 ft 6 kts 106°
2026-05-05 01:29 32.73364 -117.19445 23 ft 6 kts 130°
2026-05-05 01:29 32.73322 -117.19432 22 ft 7 kts 181°
2026-05-05 01:29 32.73267 -117.19461 23 ft 10 kts 218°
2026-05-05 01:29 32.73237 -117.19504 22 ft 5 kts 177°
2026-05-05 01:30 32.73200 -117.19502 21 ft 5 kts 181°
2026-05-05 01:30 32.73164 -117.19512 23 ft 4 kts 204°
2026-05-05 01:30 32.73159 -117.19534 22 ft 4 kts 272°
2026-05-05 01:30 32.73156 -117.19563 22 ft 1 kts 261°
2026-05-05 01:31 32.73155 -117.19564 22 ft 0 kts 261°